www.pogodaiklimat.ru

Погода и климат >> Архив погоды >> Оман >> Sohar Majis


ПОГОДА в Sohar Majis

  • Прогноз погоды в Sohar Majis
  • Монитор погоды в Sohar Majis
  • Климат города

АРХИВ ПОГОДЫ в Sohar Majis

Время (UTC), дата Ветер
(напр.,м/с)
 
Видим.   Явления Облачность Т
(С)
Тd
(С)
f
(%)
Тe
(С)
Тes
(С)
Комфортность P
(гПа)
Po
(гПа)
Тmin
(С)
Tmax
(С)
R
(мм)
R24
(мм)
S
(см)
21 10.10 ЮЗ 3 10 км ясно +30.1 +22.9 65 +40 +40 очень
душно
1005.2 1005.0
00 11.10 ЮЗ 2 н/о н/о +28.8 +14.0 40 +31 +31 жарко 1005.2 1004.8
03 11.10 З 2 н/о н/о +30.3 +15.6 41 +33 +33 душно 1007.2 1006.7
06 11.10 ЮВ 4 н/о н/о +34.1 +22.0 49 +43 +43 опасность
перегрева
1008.6 1008.2 +28.3
09 11.10 В 3 н/о н/о +35.1 +18.8 38 +40 +40 очень
душно
1006.8 1006.4
12 11.10 СВ 5 10 км 3/1 900 м
[Sc diur, vesp Ac trans]
+33.9 +27.2 68 +52 +54 опасность
перегрева
1005.5 1005.3
15 11.10 СВ 1 н/о н/о +31.5 +27.1 78 +50 +50 опасность
перегрева
1006.9 1006.5
18 11.10 З 1 н/о н/о +31.1 +26.3 76 +47 +47 опасность
перегрева
1006.9 1006.5 +35.1
21 11.10 Ю 2 н/о н/о +28.7 +25.4 82 +42 +42 опасность
перегрева
1006.1 1005.6
00 12.10 Ю 2 н/о н/о +26.7 +25.2 91 +38 +38 очень
душно
1006.3 1005.9
03 12.10 ЮЗ 2 н/о н/о +27.4 +25.6 90 +30 +30 жарко 1007.7 1007.2
06 12.10 ЮЗ 2 8000 м мгла ясно +32.4 +26.6 72 +50 +60 опасность
перегрева
1007.5 1007.3
09 12.10 В 5 н/о н/о +33.7 +28.4 74 +56 +56 опасность
перегрева
1007.3 1006.8
12 12.10 ЮВ 2 н/о н/о +33.7 +25.5 62 +48 +48 опасность
перегрева
1006.2 1005.8
15 12.10 Ю 2 н/о н/о +33.8 +15.3 33 +36 +36 очень
душно
1006.8 1006.3
18 12.10 ЮЗ 1 10 км ясно +31.7 +14.4 35 +33 +33 жарко 1007.1 1006.9 +34.8
21 12.10 ЮЗ 2 н/о н/о +30.4 +13.2 35 +32 +32 жарко 1006.3 1005.8
00 13.10 штиль 0 н/о н/о +29.1 +11.4 33 +37 +37 очень
душно
1005.9 1005.4
03 13.10 ЮЗ 3 н/о н/о +28.3 +13.2 39 +30 +30 жарко 1007.5 1007.1
06 13.10 С 2 н/о н/о +33.6 +22.7 53 +43 +43 опасность
перегрева
1008.6 1008.2 +26.9
09 13.10 СВ 6 н/о н/о +33.9 +27.7 70 +54 +54 опасность
перегрева
1006.4 1006.0
12 13.10 СВ 4 н/о н/о +33.4 +27.0 69 +51 +51 опасность
перегрева
1005.1 1004.7
15 13.10 штиль 0 н/о н/о +31.6 +27.1 77 +50 +50 опасность
перегрева
1005.8 1005.4
18 13.10 ЮЗ 1 8000 м мгла ясно +30.2 +27.2 84 +48 +48 опасность
перегрева
1006.6 1006.4 +34.9
21 13.10 З 1 н/о н/о +30.8 +24.3 68 +43 +43 опасность
перегрева
1005.9 1005.5
00 14.10 З 2 н/о н/о +31.0 +17.0 43 +35 +35 очень
душно
1005.8 1005.4
03 14.10 З 1 н/о н/о +31.1 +16.5 41 +34 +34 душно 1007.3 1006.8
06 14.10 В 2 н/о н/о +34.5 +22.3 49 +43 +43 опасность
перегрева
1008.8 1008.3 +28.6
09 14.10 В 4 н/о н/о +33.8 +24.1 57 +46 +46 опасность
перегрева
1006.3 1005.9
12 14.10 В 4 н/о н/о +34.0 +27.9 71 +55 +55 опасность
перегрева
1004.5 1004.1
15 14.10 СВ 1 10 км ясно +31.8 +27.4 78 +51 +51 опасность
перегрева
1005.5 1005.3
18 14.10 С 2 10 км ясно +30.9 +27.5 82 +50 +50 опасность
перегрева
1006.4 1006.2 +35.7
21 14.10 ЮЗ 2 н/о н/о +29.7 +26.4 82 +45 +45 опасность
перегрева
1006.1 1005.7
00 15.10 ЮЗ 2 10 км ясно +28.6 +25.0 81 +41 +41 опасность
перегрева
1006.0 1005.8
03 15.10 ЮЗ 1 н/о н/о +28.1 +23.5 76 +38 +38 очень
душно
1008.0 1007.5
06 15.10 В 3 н/о н/о +35.4 +24.6 54 +48 +48 опасность
перегрева
1009.3 1008.9 +27.8
09 15.10 В 6 н/о н/о +34.7 +23.0 51 +45 +45 опасность
перегрева
1007.0 1006.5
12 15.10 В 3 н/о н/о +33.7 +25.6 63 +49 +49 опасность
перегрева
1005.5 1005.1
15 15.10 н/о н/о +31.8 +29.1 86 1007.2 1006.7
18 15.10 СЗ 2 н/о н/о +31.0 +27.4 81 +49 +49 опасность
перегрева
1008.4 1007.9 +35.8
21 15.10 Ю 2 н/о н/о +29.8 +26.0 80 +45 +45 опасность
перегрева
1007.6 1007.2
00 16.10 ЮЗ 2 н/о н/о +28.9 +25.1 80 +42 +42 опасность
перегрева
1007.0 1006.6
03 16.10 ЮЗ 1 н/о н/о +28.1 +23.7 77 +39 +39 очень
душно
1008.6 1008.1
06 16.10 В 2 н/о н/о +34.9 +19.2 40 +40 +40 очень
душно
1009.7 1009.3 +27.7
09 16.10 В 5 7000 м мгла ясно +33.9 +26.8 67 +52 +59 опасность
перегрева
1007.0 1006.8
12 16.10 СВ 4 10 км ясно +33.1 +28.5 77 +55 +58 опасность
перегрева
1005.7 1005.5
15 16.10 СВ 1 10 км ясно +31.2 +27.8 82 +51 +51 опасность
перегрева
1006.8 1006.6
18 16.10 0 н/о н/о +31.0 +28.1 85 1008.2 1007.7 +35.0
21 16.10 Ю 1 10 км ясно +29.3 +26.1 83 +44 +44 опасность
перегрева
1007.1 1006.9
00 17.10 Ю 2 н/о н/о +27.9 +25.5 87 +41 +41 опасность
перегрева
1006.9 1006.4
03 17.10 СЗ 1 н/о н/о +29.0 +23.8 74 +40 +40 очень
душно
1008.4 1007.9
06 17.10 СВ 2 н/о н/о +33.2 +25.0 62 +47 +47 опасность
перегрева
1009.5 1009.1 +27.3
09 17.10 СВ 5 н/о н/о +35.0 +26.2 60 +51 +51 опасность
перегрева
1007.4 1006.9
12 17.10 СВ 4 н/о н/о +32.9 +27.7 74 +53 +53 опасность
перегрева
1006.0 1005.6
15 17.10 штиль 0 н/о н/о +31.2 +26.6 77 +48 +48 опасность
перегрева
1007.1 1006.6

 

Местоположение метеостанции Sohar Majis (Оман): широта 24.47 долгота 56.63 высота над уровнем моря 4 м.

В архиве по умолчанию представлена погода в Sohar Majis за последнюю неделю. Архивные данные за месяц целиком и за предыдущие месяцы, начиная с января 2011 года, Вы можете получить, выбрав интересующий диапазон дат из раскрывающегося списка и нажав кнопку "Ввод!".

Внимание! Время в таблицах - всемирное. Для получения местного времени необходимо прибавить поправку, которая в Sohar Majis равна 4 ч.

Смотрите также архив погоды в соседних городах и на ближайших метеорологических станциях:

Погода в Qumayra (Оман) (74 км)
Погода в Fujairah (ОАЭ) (76 км)
Погода в Buraimi (Оман) (90 км)
Погода в Suwaiq (Оман) (97 км)
Погода в Al Ain Int Airport (ОАЭ) (107 км)
Погода в Ibri (Оман) (117 км)
Погода в Diba (Оман) (134 км)
Погода в Rustaq (Оман) (144 км)
Погода в Ras Al Khaimah Int Airport (ОАЭ) (146 км)
Погода в Sharjah (ОАЭ) (147 км)

Пояснения к столбцам:

Ветер - указаны скорость ветра в м/с - средняя за 10 мин, порывы в срок и между сроками (в фигурных скобках) и направление, откуда дует ветер: С - северный, СВ - северо-восточный, В - восточный, ЮВ - юго-восточный, Ю - южный, ЮЗ - юго-западный, З - западный, СЗ - северо-западный.
Видимость - горизонтальная дальность видимости в метрах или километрах. При видимости от 1 до 10 км при отсутствии осадков обычно наблюдается дымка, при ухудшении видимости до 1 км и менее - туман. В сухую погоду видимость может ухудшаться дымом, пылью или мглою.
Явления - указаны атмосферные явления, наблюдавшиеся в срок или в последний час перед сроком; фигурными скобками обозначены явления, наблюдавшиеся между сроками (за 1-3 часа до срока); квадратными скобками обозначены град или гололедные отложения с указанием их диаметра в мм.
Облачность - указаны через наклонную черту общая и нижняя облачность в баллах и высота нижней границы облаков в метрах; квадратными скобками обозначены формы облаков: Ci - перистые, Cs - перисто-слоистые, Cc - перисто-кучевые, Ac - высококучевые, As - высокослоистые, Sc - слоисто-кучевые, Ns - слоисто-дождевые, Cu - кучевые, Cb - кучево-дождевые. Подробнее классификацию облаков см. в Атласе облаков (PDF).
T - Температура воздуха - температура, измеренная на высоте 2 м над землей.
Td - Температура точки росы - температура, при понижении до которой содержащийся в воздухе водяной пар достигнет насыщения.
f - Относительная влажность воздуха - влажноcть воздуха, измеренная на высоте 2 м над землей.
Te - Эффективная температура - температура, которую ощущает одетый по сезону человек в тени. Характеристика душности погоды. При расчете учитывается влияние влажности воздуха и скорости ветра на теплоощущения человека.
Tes - Эффективная температура на солнце - температура, которую ощущает человек, с поправкой на солнечный нагрев. Характеристика знойности погоды. Зависит от высоты солнца над горизонтом, облачности и скорости ветра. Ночью, в пасмурную погоду, а также при ветре 12 м/с и более поправка равна нулю.
P - Атмосферное давление - приведенное к уровню моря атмосферное давление.
Po - Атмосферное давление - измеренное на уровне метеостанции атмосферное давление.
Tmin - Минимальная температура - минимум температуры воздуха на высоте 2 м над землей.
Tmax - Максимальная температура - максимум температуры воздуха на высоте 2 м над землей.
R - Количество осадков - Количество выпавших осадков за период времени, мм. При наведении курсора мыши на число - период времени, за который выпало указанное количество осадков.
R24 - Количество осадков - Количество выпавших осадков за 24 часа, мм.
S - Снежный покров - Высота снежного покрова, см. При наведении курсора мыши на число - состояние снежного покрова и степень покрытия местности в баллах.